CW3467 Sant Marti de Canals ES current weather conditions

sailwx.info

Wind from 260 at 1 knots gusting 4

Air temperature 28.3° C
Dewpoint 13.8° C

Last reported at 2017-Aug-22 10:03 UTC.
Time now 2017-Aug-22 11:06 UTC

Location: N 42°14' E 000°59'.
View on Google Maps.

See reports from other nearby stations

  
Tides and Currents Weather Stations Pressure Air Temp Water Temp Dewpoint Dewpoint Depression Visibility Wind Speed Wind Dir Waves Ship Positions
date/time (UTC)wind fromknots sea level pressurealtimeterstation pressurevisibilityair tempwater tempwave heightnotes
2017-Aug-22 10:03 260 1 gusting 4 28.3
2017-Aug-22 09:48 204 2 gusting 4 28.3
2017-Aug-22 09:33 231 0 gusting 2 27.2
2017-Aug-22 09:18 219 0 gusting 4 26.1
2017-Aug-22 09:03 222 1 gusting 4 25.6
2017-Aug-22 08:48 205 0 gusting 3 24.4
2017-Aug-22 08:33 238 1 gusting 4 23.9
2017-Aug-22 08:18 150 0 gusting 3 23.3
2017-Aug-22 08:03 217 0 gusting 2 22.8
2017-Aug-22 07:48 204 1 gusting 3 22.2
2017-Aug-22 07:33 218 0 gusting 2 21.7
2017-Aug-22 07:17 165 1 gusting 3 20.6
2017-Aug-22 07:02 146 20.6
2017-Aug-22 06:47 136 18.9
2017-Aug-22 06:32 111 17.8
2017-Aug-22 06:18 111 17.2
2017-Aug-22 06:02 111 17.8
2017-Aug-22 05:48 111 17.8
2017-Aug-22 05:32 111 17.8
2017-Aug-22 05:17 111 0 gusting 1 17.8
2017-Aug-22 05:02 127 17.8
2017-Aug-22 04:47 127 18.3
2017-Aug-22 04:32 120 18.3
2017-Aug-22 04:17 095 18.3
2017-Aug-22 04:02 094 18.3
2017-Aug-22 03:47 094 18.3
2017-Aug-22 03:36 097 18.9
2017-Aug-22 03:25 101 18.9
2017-Aug-22 03:02 101 0 gusting 1 18.9
2017-Aug-22 02:47 117 0 gusting 0 19.4
2017-Aug-22 02:32 117 19.4
2017-Aug-22 02:17 117 19.4
2017-Aug-22 02:02 120 19.4
2017-Aug-22 01:47 120 20.0
2017-Aug-22 01:32 097 20.0
2017-Aug-22 01:17 097 20.6
2017-Aug-22 01:02 110 20.6
2017-Aug-22 00:47 118 0 gusting 1 20.6
2017-Aug-22 00:32 120 0 gusting 0 21.1
2017-Aug-22 00:17 134 21.1
2017-Aug-22 00:02 120 21.7
2017-Aug-21 23:47 008 21.7
2017-Aug-21 23:32 006 0 gusting 2 22.2
2017-Aug-21 23:17 142 22.8
2017-Aug-21 23:02 113 2 gusting 3 22.8
2017-Aug-21 22:47 121 1 gusting 2 22.8
2017-Aug-21 22:32 105 1 gusting 3 23.3
2017-Aug-21 22:17 141 1 gusting 3 23.3
2017-Aug-21 22:02 120 1 gusting 3 23.9
2017-Aug-21 21:47 139 1 gusting 2 24.4
2017-Aug-21 21:32 117 25.0
2017-Aug-21 21:17 111 0 gusting 2 25.0
2017-Aug-21 21:02 012 25.6
2017-Aug-21 20:47 041 26.1
2017-Aug-21 20:32 030 26.7
2017-Aug-21 20:17 357 26.7
2017-Aug-21 20:02 132 0 gusting 8 27.2
2017-Aug-21 19:47 142 3 gusting 6 27.2
2017-Aug-21 19:32 129 2 gusting 4 27.8
2017-Aug-21 19:17 127 1 gusting 4 27.8
2017-Aug-21 19:02 218 0 gusting 2 28.3
2017-Aug-21 18:47 145 0 gusting 4 28.9
2017-Aug-21 18:32 174 2 gusting 7 29.4
2017-Aug-21 18:17 145 5 gusting 10 30.0
2017-Aug-21 18:02 148 6 gusting 9 30.6
2017-Aug-21 17:47 145 5 gusting 11 31.1
2017-Aug-21 17:32 121 6 gusting 13 31.7
2017-Aug-21 17:17 174 6 gusting 13 31.7
2017-Aug-21 17:02 157 5 gusting 14 32.2
2017-Aug-21 16:47 176 5 gusting 11 32.8
2017-Aug-21 16:32 146 4 gusting 9 32.8
2017-Aug-21 16:17 221 6 gusting 10 33.3
2017-Aug-21 16:01 281 33.3
2017-Aug-21 15:47 267 1 gusting 8 33.3
2017-Aug-21 15:32 253 3 gusting 6 33.9
2017-Aug-21 15:17 284 5 gusting 9 33.3
2017-Aug-21 15:01 243 2 gusting 6 33.3
2017-Aug-21 14:46 206 1 gusting 6 33.9
2017-Aug-21 14:31 115 2 gusting 7 33.3
2017-Aug-21 14:16 270 1 gusting 8 32.8
2017-Aug-21 14:01 214 4 gusting 7 33.3
2017-Aug-21 13:46 257 2 gusting 5 32.8
2017-Aug-21 13:31 242 3 gusting 9 32.8
2017-Aug-21 13:16 203 3 gusting 7 32.2
2017-Aug-21 13:01 159 2 gusting 8 31.7
2017-Aug-21 12:46 235 3 gusting 7 31.7
2017-Aug-21 12:31 216 1 gusting 6 31.1
2017-Aug-21 12:16 218 3 gusting 10 31.1
2017-Aug-21 12:01 255 1 gusting 8 30.6
2017-Aug-21 11:46 269 1 gusting 6 30.0
2017-Aug-21 11:31 285 1 gusting 6 29.4
2017-Aug-21 11:16 256 2 gusting 6 28.9
2017-Aug-21 11:01 269 2 gusting 6 28.3
2017-Aug-21 10:46 225 2 gusting 7 27.8
2017-Aug-21 10:31 219 1 gusting 6 27.8
2017-Aug-21 10:16 229 1 gusting 3 27.2
2017-Aug-21 10:00 285 0 gusting 2 26.7
2017-Aug-21 09:46 134 0 gusting 2 25.0
2017-Aug-21 09:30 008 0 gusting 2 25.0
2017-Aug-21 09:15 262 0 gusting 1 24.4
2017-Aug-21 09:00 259 23.3
2017-Aug-21 08:45 145 1 gusting 3 22.2
2017-Aug-21 08:30 198 21.7
2017-Aug-21 08:15 167 0 gusting 3 21.1
2017-Aug-21 08:00 243 21.1
2017-Aug-21 07:45 201 0 gusting 2 20.0
2017-Aug-21 07:30 147 0 gusting 2 19.4
2017-Aug-21 07:15 148 1 gusting 3 18.3
2017-Aug-21 07:00 142 17.8
2017-Aug-21 06:45 146 16.1
2017-Aug-21 06:30 108 15.0
2017-Aug-21 06:15 124 15.0
2017-Aug-21 06:00 115 15.0
2017-Aug-21 05:45 115 15.0
2017-Aug-21 05:30 117 15.6
2017-Aug-21 05:15 101 15.6
2017-Aug-21 05:00 125 15.0
2017-Aug-21 04:45 215 16.1
2017-Aug-21 04:30 098 16.1
2017-Aug-21 04:15 117 16.1
2017-Aug-21 04:00 128 16.1
2017-Aug-21 03:45 129 16.1
2017-Aug-21 03:30 134 16.1
2017-Aug-21 03:15 025 16.7
2017-Aug-21 03:00 026 16.7
2017-Aug-21 02:45 316 16.7
2017-Aug-21 02:30 316 17.2
2017-Aug-21 02:15 103 1 gusting 2 17.8
2017-Aug-21 02:00 104 1 gusting 2 17.2
2017-Aug-21 01:45 188 17.2
2017-Aug-21 01:29 117 17.8
2017-Aug-21 01:14 115 17.8
2017-Aug-21 00:59 139 18.3
2017-Aug-21 00:44 061 18.3
2017-Aug-21 00:29 113 18.3
2017-Aug-21 00:14 113 18.3
2017-Aug-20 23:59 115 18.9
2017-Aug-20 23:44 124 18.9
2017-Aug-20 23:29 110 20.0
2017-Aug-20 23:14 104 0 gusting 2 19.4
2017-Aug-20 22:59 143 0 gusting 3 20.0
2017-Aug-20 22:44 115 1 gusting 2 20.6
2017-Aug-20 22:29 134 0 gusting 3 20.6
2017-Aug-20 22:14 142 1 gusting 2 20.6
2017-Aug-20 21:59 128 0 gusting 2 21.1
2017-Aug-20 21:44 120 2 gusting 3 21.7
2017-Aug-20 21:29 135 22.2
2017-Aug-20 21:14 061 0 gusting 1 22.2
2017-Aug-20 20:59 053 0 gusting 1 22.8
2017-Aug-20 20:44 008 23.3
2017-Aug-20 20:29 055 23.3
2017-Aug-20 20:14 047 0 gusting 1 23.3
2017-Aug-20 19:59 053 0 gusting 1 23.9
2017-Aug-20 19:44 006 0 gusting 2 24.4
2017-Aug-20 19:29 006 24.4
2017-Aug-20 19:14 330 25.0
2017-Aug-20 18:59 075 2 gusting 7 25.6
2017-Aug-20 18:44 108 4 gusting 10 25.6
2017-Aug-20 18:29 128 6 gusting 9 26.1
2017-Aug-20 18:14 129 5 gusting 8 27.2
2017-Aug-20 17:59 118 6 gusting 12 27.2
2017-Aug-20 17:44 138 6 gusting 11 27.8
2017-Aug-20 17:29 156 6 gusting 13 28.3
2017-Aug-20 17:14 208 4 gusting 8 28.9
2017-Aug-20 16:59 210 3 gusting 11 29.4
2017-Aug-20 16:44 124 4 gusting 8 30.0
2017-Aug-20 16:29 280 3 gusting 8 30.0
2017-Aug-20 16:14 208 3 gusting 8 30.0
2017-Aug-20 15:59 246 4 gusting 8 30.0
2017-Aug-20 15:44 159 3 gusting 8 30.6
2017-Aug-20 15:29 214 3 gusting 8 30.0
2017-Aug-20 15:14 248 4 gusting 7 30.0
2017-Aug-20 14:59 257 2 gusting 8 30.0
2017-Aug-20 14:44 224 4 gusting 9 30.0
2017-Aug-20 14:29 274 2 gusting 8 30.6
2017-Aug-20 14:14 204 2 gusting 8 30.0
2017-Aug-20 13:59 252 2 gusting 7 30.0
2017-Aug-20 13:44 248 4 gusting 6 30.0
2017-Aug-20 13:29 257 2 gusting 9 30.0
2017-Aug-20 13:14 273 2 gusting 8 29.4
2017-Aug-20 12:59 250 2 gusting 9 28.9
2017-Aug-20 12:44 300 3 gusting 8 28.9
2017-Aug-20 12:29 284 2 gusting 9 28.9
2017-Aug-20 12:14 207 1 gusting 7 28.3
2017-Aug-20 11:59 289 5 gusting 8 27.8
2017-Aug-20 11:44 229 3 gusting 6 27.2
2017-Aug-20 11:29 218 3 gusting 7 27.2
2017-Aug-20 11:14 239 3 gusting 8 26.7